Weather reports worldwide

Advertisment
Levens Hall, United Kingdom (99172): temperature & dewpoint: 15.05.2019 04:00:00 - 21.05.2019 04:00:00 (BST)Levens Hall, United Kingdom (99172): precipitation: 15.05.2019 04:00:00 - 21.05.2019 04:00:00 (BST)
Date & Time tt [°C] td [°C] rr [mm]
21.05.2019 04:00:00 4,1 3,5 0,0
21.05.2019 03:00:00 5,2 4,5 0,0
21.05.2019 02:00:00 5,8 5,1 0,0
21.05.2019 01:00:00 6,4 5,2 0,0
21.05.2019 00:00:00 7,4 6,2 0,0
20.05.2019 23:00:00 8,3 6,1 0,0
20.05.2019 22:00:00 10,1 7,3 0,0
20.05.2019 21:00:00 12,5 7,4 0,0
20.05.2019 20:00:00 14,3 7,7 0,0
20.05.2019 19:00:00 15,3 7,4 0,0
20.05.2019 18:00:00 16,1 8,3 0,0
20.05.2019 17:00:00 16,4 7,8 0,0
20.05.2019 16:00:00 16,8 7,1 0,0
20.05.2019 15:00:00 17,2 7,9 0,0
20.05.2019 14:00:00 17,2 8,5 0,0
20.05.2019 13:00:00 16,8 7,6 0,0
20.05.2019 12:00:00 17,1 9,7 0,0
20.05.2019 11:00:00 16,0 10,2 0,0
20.05.2019 10:00:00 14,7 8,8 0,0
20.05.2019 09:00:00 12,6 10,2 0,0
20.05.2019 08:00:00 9,3 8,7 0,0
20.05.2019 07:00:00 8,8 8,3 0,0
20.05.2019 06:00:00 8,5 7,9 0,0
20.05.2019 05:00:00 8,5 7,8 0,0
20.05.2019 04:00:00 8,9 8,1 0,0
20.05.2019 03:00:00 8,8 7,7 0,0
20.05.2019 02:00:00 9,2 7,9 0,0
20.05.2019 01:00:00 9,2 7,9 0,0
20.05.2019 00:00:00 9,2 7,9 0,0
19.05.2019 23:00:00 8,8 7,3 0,0
19.05.2019 22:00:00 10,2 7,9 0,0
19.05.2019 21:00:00 11,9 8,3 0,0
19.05.2019 20:00:00 13,1 8,5 0,0
19.05.2019 19:00:00 14,4 7,8 0,0
19.05.2019 18:00:00 15,4 8,4 0,0
19.05.2019 17:00:00 16,0 8,8 0,0
19.05.2019 16:00:00 16,1 8,9 0,0
19.05.2019 15:00:00 16,3 9,3 0,0
19.05.2019 14:00:00 14,9 8,4 0,0
19.05.2019 13:00:00 14,7 8,0 0,0
19.05.2019 12:00:00 14,2 9,1 0,0
19.05.2019 11:00:00 12,8 8,7 0,0
19.05.2019 10:00:00 12,1 9,6 0,0
19.05.2019 09:00:00 11,7 8,9 0,0
19.05.2019 08:00:00 11,3 9,5 0,0
19.05.2019 07:00:00 11,0 8,8 0,0
19.05.2019 06:00:00 10,3 8,4 0,0
19.05.2019 05:00:00 10,1 8,3 0,0
19.05.2019 04:00:00 10,2 8,4 0,0
19.05.2019 03:00:00 9,9 8,8 0,0
19.05.2019 02:00:00 9,6 8,8 0,0
19.05.2019 01:00:00 9,5 8,9 0,0
19.05.2019 00:00:00 9,3 8,5 0,0
18.05.2019 23:00:00 9,1 8,2 0,0
18.05.2019 22:00:00 9,2 7,7 0,0
18.05.2019 21:00:00 11,3 8,6 0,0
18.05.2019 20:00:00 13,8 9,1 0,0
18.05.2019 19:00:00 14,5 8,9 0,0
18.05.2019 18:00:00 14,5 8,9 0,0
18.05.2019 17:00:00 15,2 8,6 0,0
18.05.2019 16:00:00 16,1 9,4 0,0
18.05.2019 15:00:00 15,8 7,6 0,0
18.05.2019 14:00:00 15,5 7,8 0,0
18.05.2019 13:00:00 14,7 7,7 0,0
18.05.2019 12:00:00 13,8 7,5 0,0
18.05.2019 11:00:00 13,3 7,7 0,0
18.05.2019 10:00:00 13,7 8,5 0,0
18.05.2019 09:00:00 12,3 8,4 0,0
18.05.2019 08:00:00 11,9 8,6 0,0
18.05.2019 07:00:00 10,6 8,0 0,0
18.05.2019 06:00:00 10,5 8,0 0,0
18.05.2019 05:00:00 10,4 7,9 0,0
18.05.2019 04:00:00 10,7 7,8 0,0
18.05.2019 03:00:00 11,0 7,5 0,0
18.05.2019 02:00:00 11,1 7,7 0,0
18.05.2019 01:00:00 11,3 7,3 0,0
18.05.2019 00:00:00 11,5 6,8 0,0
17.05.2019 23:00:00 11,9 5,8 0,0
17.05.2019 22:00:00 12,4 6,4 0,0
17.05.2019 21:00:00 13,9 7,4 0,0
17.05.2019 20:00:00 14,8 6,8 0,0
17.05.2019 19:00:00 15,5 6,1 0,0
17.05.2019 18:00:00 16,5 5,1 0,0
17.05.2019 17:00:00 18,6 5,4 0,0
17.05.2019 16:00:00 19,4 4,9 0,0
17.05.2019 15:00:00 19,2 5,0 0,0
17.05.2019 14:00:00 19,4 6,1 0,0
17.05.2019 13:00:00 17,7 5,8 0,0
17.05.2019 12:00:00 16,8 6,1 0,0
17.05.2019 11:00:00 15,2 5,5 0,0
17.05.2019 10:00:00 14,3 6,4 0,0
17.05.2019 09:00:00 12,3 5,5 0,0
17.05.2019 08:00:00 11,2 5,9 0,0
17.05.2019 07:00:00 10,1 5,3 0,0
17.05.2019 06:00:00 9,8 5,3 0,0
17.05.2019 05:00:00 10,2 4,4 0,0
17.05.2019 04:00:00 10,3 4,1 0,0
17.05.2019 03:00:00 10,5 3,7 0,0
17.05.2019 02:00:00 10,5 3,8 0,0
17.05.2019 01:00:00 11,0 3,2 0,0
17.05.2019 00:00:00 11,5 2,3 0,0
16.05.2019 23:00:00 10,3 4,9 0,0
16.05.2019 22:00:00 10,7 3,3 0,0
16.05.2019 21:00:00 12,4 3,0 0,0
16.05.2019 20:00:00 14,6 3,5 0,0
16.05.2019 19:00:00 16,0 4,9 0,0
16.05.2019 18:00:00 17,2 5,4 0,0
16.05.2019 17:00:00 16,2 5,7 0,0
16.05.2019 16:00:00 17,1 6,2 0,0
16.05.2019 15:00:00 18,1 5,3 0,0
16.05.2019 14:00:00 17,3 6,0 0,0
16.05.2019 13:00:00 16,8 5,9 0,0
16.05.2019 12:00:00 16,6 6,6 0,0
16.05.2019 11:00:00 15,3 4,5 0,0
16.05.2019 10:00:00 14,4 4,2 0,0
16.05.2019 09:00:00 12,7 5,1 0,0
16.05.2019 08:00:00 9,5 5,1 0,0
16.05.2019 07:00:00 9,2 5,8 0,0
16.05.2019 06:00:00 7,0 5,2 0,0
16.05.2019 05:00:00 5,7 1,8 0,0
16.05.2019 04:00:00 7,4 4,1 0,0
16.05.2019 03:00:00 10,1 4,5 0,0
16.05.2019 02:00:00 11,9 3,9 0,0
16.05.2019 01:00:00 12,8 4,7 0,0
16.05.2019 00:00:00 13,5 6,1 0,0
15.05.2019 23:00:00 14,2 8,2 0,0
15.05.2019 22:00:00 13,3 8,9 0,0
15.05.2019 21:00:00 16,2 9,5 0,0
15.05.2019 20:00:00 18,5 10,7 0,0
15.05.2019 19:00:00 18,9 9,3 0,0
15.05.2019 18:00:00 21,1 9,4 0,0
15.05.2019 17:00:00 22,1 10,8 0,0
15.05.2019 16:00:00 22,2 10,1 0,0
15.05.2019 15:00:00 23,0 12,3 0,0
15.05.2019 14:00:00 22,2 12,3 0,0
15.05.2019 13:00:00 21,1 9,8 0,0
15.05.2019 12:00:00 18,6 8,3 0,0
15.05.2019 11:00:00 17,5 6,7 0,0
15.05.2019 10:00:00 16,5 8,1 0,0
15.05.2019 09:00:00 14,7 8,6 0,0
15.05.2019 08:00:00 12,1 8,9 0,0
15.05.2019 07:00:00 9,2 7,7 0,0
15.05.2019 06:00:00 6,6 5,7 0,0
15.05.2019 05:00:00 7,3 6,0 0,0
15.05.2019 04:00:00 8,1 6,3 0,0

tt = temperature
td = dewpoint
rr = precipitation

Next stations